| time (UTC) | temp F | wind direction | speed knots | gust knots | rain 1hr in | rain 24hr in | rain mn in | humidity % | barometer mb |
| 20260505140121 | 53 | 23 | 0.0 | 1.7 | 0.00 | 0.00 | 0.00 | 85 | 1014.9 |
| 20260505130119 | 53 | 150 | 0.0 | 0.9 | 0.00 | 0.00 | 0.00 | 86 | 1014.5 |
| 20260505124629 | 53 | 168 | 0.0 | 0.9 | 0.00 | 0.00 | 0.00 | 87 | 1014.3 |
| 20260505123141 | 53 | 221 | 0.0 | 3.5 | 0.00 | 0.00 | 0.00 | 86 | 1014.2 |
| 20260505121650 | 53 | 240 | 0.0 | 2.6 | 0.00 | 0.00 | 0.00 | 87 | 1014.1 |
| 20260505120120 | 53 | 131 | 0.0 | 0.0 | 0.00 | 0.00 | 0.00 | 87 | 1014.0 |
| 20260505114629 | 53 | 147 | 0.0 | 0.0 | 0.00 | 0.00 | 0.00 | 87 | 1014.0 |
| 20260505113120 | 53 | 138 | 0.0 | 0.0 | 0.00 | 0.00 | 0.00 | 87 | 1013.9 |
| 20260505111627 | 53 | 134 | 0.9 | 1.7 | 0.00 | 0.00 | 0.00 | 87 | 1014.0 |
| 20260505110119 | 53 | 172 | 0.0 | 1.7 | 0.00 | 0.00 | 0.00 | 87 | 1013.8 |
| 20260505101628 | 53 | 147 | 0.0 | 3.5 | 0.00 | 0.00 | 0.00 | 88 | 1013.5 |
| 20260505100137 | 53 | 153 | 0.0 | 1.7 | 0.00 | 0.00 | 0.00 | 88 | 1013.4 |
| 20260505094624 | 53 | 138 | 0.0 | 0.9 | 0.00 | 0.00 | 0.00 | 88 | 1013.3 |
| 20260505093136 | 52 | 160 | 0.0 | 2.6 | 0.00 | 0.00 | 0.00 | 88 | 1013.2 |
| 20260505091618 | 52 | 120 | 0.0 | 0.0 | 0.00 | 0.00 | 0.00 | 89 | 1013.1 |
| 20260505090154 | 52 | 162 | 0.0 | 0.0 | 0.00 | 0.00 | 0.00 | 89 | 1013.1 |
| 20260505083129 | 50 | 320 | 0.0 | 0.0 | 0.00 | 0.00 | 0.00 | 90 | 1012.9 |
| 20260505080116 | 51 | 320 | 0.0 | 0.0 | 0.00 | 0.00 | 0.00 | 89 | 1012.8 |
| 20260505074637 | 51 | 320 | 0.0 | 0.0 | 0.00 | 0.00 | 0.00 | 89 | 1012.7 |
| 20260505073123 | 52 | 320 | 0.0 | 0.0 | 0.00 | 0.00 | 0.00 | 89 | 1012.5 |
| 20260505071628 | 52 | 320 | 0.0 | 0.0 | 0.00 | 0.00 | 0.00 | 88 | 1012.3 |
| 20260505070121 | 52 | 320 | 0.0 | 0.0 | 0.00 | 0.00 | 0.00 | 88 | 1012.2 |
| 20260505064632 | 53 | 320 | 0.0 | 0.0 | 0.00 | 0.00 | 0.00 | 88 | 1012.2 |
| 20260505063120 | 53 | 326 | 0.0 | 0.0 | 0.00 | 0.00 | 0.00 | 87 | 1012.0 |
| 20260505061625 | 54 | 252 | 0.0 | 0.0 | 0.00 | 0.00 | 0.00 | 86 | 1011.8 |
| 20260505060116 | 54 | 282 | 0.0 | 0.0 | 0.00 | 0.00 | 0.00 | 85 | 1011.7 |
| 20260505054624 | 54 | 220 | 0.0 | 0.0 | 0.00 | 0.00 | 0.00 | 85 | 1011.4 |
| 20260505053136 | 55 | 220 | 0.0 | 0.0 | 0.00 | 0.00 | 0.00 | 83 | 1011.4 |
| 20260505051646 | 56 | 220 | 0.0 | 0.0 | 0.00 | 0.00 | 0.00 | 82 | 1011.3 |
| 20260505050138 | 56 | 278 | 0.0 | 3.5 | 0.00 | 0.00 | 0.00 | 81 | 1011.1 |
| 20260505041625 | 59 | 255 | 0.0 | 2.6 | 0.00 | 0.00 | 0.00 | 76 | 1010.7 |
| 20260505040115 | 60 | 233 | 0.9 | 7.0 | 0.00 | 0.00 | 0.00 | 73 | 1010.5 |
| 20260505034627 | 61 | 137 | 0.0 | 4.3 | 0.00 | 0.00 | 0.00 | 71 | 1010.3 |
| 20260505031625 | 64 | 204 | 0.0 | 2.6 | 0.00 | 0.00 | 0.00 | 66 | 1009.9 |
| 20260505030135 | 66 | 240 | 1.7 | 7.0 | 0.00 | 0.00 | 0.00 | 63 | 1009.7 |
| 20260505024640 | 67 | 297 | 1.7 | 6.1 | 0.00 | 0.00 | 0.00 | 62 | 1009.5 |
| 20260505023201 | 68 | 295 | 0.0 | 2.6 | 0.00 | 0.00 | 0.00 | 60 | 1009.4 |
| 20260505021623 | 70 | 328 | 0.9 | 2.6 | 0.00 | 0.00 | 0.00 | 57 | 1009.2 |
| 20260505020118 | 71 | 268 | 0.9 | 4.3 | 0.00 | 0.00 | 0.00 | 54 | 1009.3 |
| 20260505014626 | 73 | 256 | 0.9 | 6.1 | 0.00 | 0.00 | 0.00 | 51 | 1009.3 |
| 20260505013140 | 74 | 309 | 1.7 | 5.2 | 0.00 | 0.00 | 0.00 | 50 | 1009.2 |
| 20260505011643 | 74 | 351 | 2.6 | 7.8 | 0.00 | 0.00 | 0.00 | 50 | 1009.3 |
| 20260505010122 | 75 | 347 | 6.1 | 9.6 | 0.00 | 0.00 | 0.00 | 50 | 1009.3 |
| 20260504221633 | 78 | 214 | 0.0 | 6.1 | 0.00 | 0.00 | 0.00 | 47 | 1009.9 |
| 20260504220114 | 77 | 306 | 0.0 | 5.2 | 0.00 | 0.00 | 0.00 | 47 | 1010.0 |
| 20260504214620 | 77 | 290 | 0.0 | 6.1 | 0.00 | 0.00 | 0.00 | 50 | 1010.1 |
| 20260504213125 | 77 | 178 | 0.0 | 5.2 | 0.00 | 0.00 | 0.00 | 47 | 1010.2 |
| 20260504211649 | 77 | 300 | 0.0 | 6.1 | 0.00 | 0.00 | 0.00 | 47 | 1010.2 |
| 20260504210117 | 77 | 261 | 0.9 | 6.1 | 0.00 | 0.00 | 0.00 | 45 | 1010.2 |
| 20260504204615 | 78 | 231 | 0.0 | 1.7 | 0.00 | 0.00 | 0.00 | 44 | 1010.3 |
| 20260504203119 | 76 | 302 | 0.9 | 4.3 | 0.00 | 0.00 | 0.00 | 47 | 1010.5 |
| 20260504201625 | 77 | 314 | 0.0 | 0.0 | 0.00 | 0.00 | 0.00 | 47 | 1010.6 |
| 20260504200150 | 76 | 296 | 0.0 | 0.0 | 0.00 | 0.00 | 0.00 | 48 | 1010.7 |
| 20260504194629 | 75 | 217 | 0.0 | 6.1 | 0.00 | 0.00 | 0.00 | 48 | 1010.7 |
| 20260504193114 | 75 | 314 | 0.9 | 6.1 | 0.00 | 0.00 | 0.00 | 49 | 1010.8 |
| 20260504191614 | 74 | 304 | 0.0 | 3.5 | 0.00 | 0.00 | 0.00 | 49 | 1010.9 |
| 20260504190123 | 72 | 359 | 0.0 | 4.3 | 0.00 | 0.00 | 0.00 | 51 | 1011.1 |
| 20260504184625 | 71 | 308 | 2.6 | 7.0 | 0.00 | 0.00 | 0.00 | 51 | 1011.2 |
| 20260504183150 | 71 | 287 | 0.9 | 5.2 | 0.00 | 0.00 | 0.00 | 52 | 1011.4 |
| 20260504181614 | 70 | 321 | 0.0 | 4.3 | 0.00 | 0.00 | 0.00 | 51 | 1011.3 |
| 20260504180118 | 70 | 335 | 0.0 | 5.2 | 0.00 | 0.00 | 0.00 | 51 | 1011.3 |
| 20260504174622 | 69 | 148 | 0.0 | 1.7 | 0.00 | 0.00 | 0.00 | 52 | 1011.4 |
| 20260504173126 | 69 | 256 | 1.7 | 5.2 | 0.00 | 0.00 | 0.00 | 55 | 1011.4 |
| 20260504171627 | 69 | 216 | 0.0 | 0.0 | 0.00 | 0.00 | 0.00 | 58 | 1011.4 |
| 20260504170116 | 67 | 287 | 0.0 | 4.3 | 0.00 | 0.00 | 0.00 | 61 | 1011.4 |
| 20260504160125 | 64 | 345 | 0.0 | 0.0 | 0.00 | 0.00 | 0.00 | 65 | 1011.1 |
| 20260504150125 | 59 | 231 | 0.0 | 0.9 | 0.00 | 0.00 | 0.00 | 74 | 1010.6 |